Location: Oshawa
(43.9000°N, 78.8670°W)
Time: 19:45:57
(UTC-04:00)

Iridium 98 - Visible Passes

Search period start: 16 August 2017 00:00
Search period end: 26 August 2017 00:00
Orbit: 776 x 779 km, 86.4° (Epoch: 16 August)

Date Brightness Start Highest point End Pass type
(mag) Time Alt. Az. Time Alt. Az. Time Alt. Az.
16 Aug 7.9 02:03:33 12° E 02:04:52 13° ENE 02:07:11 10° NE visible
16 Aug 5.4 03:44:02 63° SSW 03:44:50 79° W 03:50:05 10° N visible
17 Aug 5.8 03:10:52 56° ESE 03:11:21 58° E 03:16:29 10° N visible
17 Aug 7.1 04:51:21 17° W 04:52:30 18° WNW 04:56:00 10° NNW visible
18 Aug 6.8 02:37:41 32° E 02:37:59 32° E 02:42:36 10° NNE visible
18 Aug 6.4 04:18:10 30° W 04:18:40 31° WNW 04:23:17 10° NNW visible
19 Aug 7.6 02:04:29 19° E 02:04:45 19° ENE 02:08:17 10° NE visible
19 Aug 5.7 03:44:58 55° W 03:44:59 55° W 03:50:07 10° N visible
20 Aug 8.1 01:31:28 10° ENE 01:31:37 10° ENE 01:31:47 10° ENE visible
20 Aug 5.5 03:11:46 77° NNE 03:11:46 77° NNE 03:16:40 10° N visible
20 Aug 7.5 04:52:15 12° WNW 04:52:51 13° WNW 04:55:04 10° NW visible
21 Aug 6.4 02:38:33 44° ENE 02:38:33 44° ENE 02:42:58 10° NNE visible
21 Aug 6.9 04:19:02 22° WNW 04:19:02 22° WNW 04:22:59 10° NNW visible
22 Aug 7.2 02:05:19 25° ENE 02:05:19 25° ENE 02:08:57 10° NNE visible
22 Aug 6.3 03:45:48 37° WNW 03:45:48 37° WNW 03:50:03 10° NNW visible
23 Aug 7.9 01:32:05 15° ENE 01:32:05 15° ENE 01:34:18 10° NE visible
23 Aug 6.0 03:12:34 55° NNW 03:12:34 55° NNW 03:16:46 10° N visible
24 Aug 6.3 02:39:19 48° NNE 02:39:19 48° NNE 02:43:13 10° N visible
24 Aug 7.4 04:19:48 16° WNW 04:19:48 16° WNW 04:22:26 10° NW visible
25 Aug 7.1 02:06:04 31° NE 02:06:04 31° NE 02:09:24 10° NNE visible
25 Aug 6.9 03:46:33 25° NW 03:46:33 25° NW 03:49:52 10° NNW visible
